Санд-Сити

США     36°37′50″N   121°50′24″W
темп.,
°C
ветер,
м/с
пор.,
м/с
влажн.,
%
обл.,
%
осадки,
мм/ч
давл.,
гПа
погр.,
м
19 апреля, пн
пн1923:00+9вюв117712 0.0 102013
02:00+8ююв22925 0.0 102018
05:00+8ююв229599 0.0 102038
08:00+11ююз238734 0.0 1021254
11:00+15зюз44651 0.0 1020501
14:00+14зюз55676 0.0 1020543
17:00+14юз567089 0.0 1018433
20:00+10ююз369162 0.0 1018174
20 апреля, вт
вт2023:00+9ююз359427 0.0 1018163
02:00+9юз259621 0.0 1018167
05:00+9юз359538 0.0 1017214
08:00+11юз3587100 0.0 1016472
11:00+14зюз557281 0.0 1015674
14:00+14зюз777034 0.0 1014725
17:00+13зюз8117219 0.0 1013645
20:00+10зюз588847 0.0 1012526
21 апреля, ср
ср2123:00+10зюз369655 0.1 1012314
02:00+10юз359296 0.0 1011398
05:00+11юз3585100 0.1 1011526
08:00+12ююз228296 0.0 1012483
11:00+16з32621 0.0 1012640
14:00+15з54668 0.0 1012503
17:00+12з677978 0.0 1011542
20:00+11зюз358396 0.0 1011562
22 апреля, чт
чт2223:00+11зюз238198 0.1 1012456
02:00+11юз237968 0.0 1012212
05:00+7ю229322 0.0 101252
08:00+10ююз117910 0.0 1014233
11:00+15з43620 0.0 1015598
14:00+15з45655 0.0 1014558
17:00+14з56720 0.0 1014545
20:00+11зюз358882 0.0 1014393
23 апреля, пт
пт2323:00+11зюз3481100 0.1 1015578
02:00+10зюз2380100 0.0 1015606
05:00+10зюз2379100 0.1 1015582
08:00+11зюз237592 0.0 1015655
11:00+14з446416 0.0 1016733
14:00+15з55610 0.0 1016677
17:00+13з56715 0.0 1015619
20:00+10зюз359562 0.0 1016186